Probability
1 1 1 2 6 7 7 7 7 4 2 4 7 8 9 9 9 8 5 4 3 1 0 0 0 0 0 0 0 0 0 0 0 0 0 0 0 0 0 0 0 0 0
0 0 1 3 7 8 7 7 6 3 1 3 6 8 9 8 8 7 6 4 3 1 0 0 0 0 0 0 0 0 0 0 0 0 0 0 0 0 0 0 0 0 0
0 0 1 3 6 8 7 6 5 2 0 2 6 8 8 7 7 7 6 4 2 1 0 0 0 0 0 0 0 0 0 0 0 0 0 0 0 0 0 0 0 0 0
0 0 0 1 4 7 8 7 4 2 0 2 5 7 6 6 7 7 6 5 2 0 0 0 0 0 0 0 0 0 0 0 0 0 0 0 0 0 0 0 0 0 0
0 0 0 0 2 5 8 7 5 3 1 1 4 5 5 6 7 7 6 5 3 1 0 0 0 0 0 0 0 0 0 0 0 0 0 0 0 0 0 0 0 0 0
0 0 0 0 1 4 7 8 6 4 2 1 3 5 6 5 6 7 6 5 3 1 0 0 0 0 0 0 0 0 0 0 0 0 0 0 0 0 0 0 0 0 0
0 0 1 1 1 3 5 6 5 3 2 2 3 5 5 5 6 6 5 4 3 1 0 0 0 0 0 0 0 0 0 0 0 0 0 0 0 0 0 0 0 0 0
0 0 1 2 2 2 3 4 3 2 1 2 4 5 4 4 5 5 4 3 1 1 0 0 0 0 0 0 0 0 0 0 0 0 0 0 0 0 0 0 0 0 0
0 0 1 2 2 3 3 3 2 1 0 1 3 5 4 4 4 4 3 1 0 0 0 0 0 0 0 0 0 0 0 0 0 0 0 0 0 0 0 0 0 0 0
0 0 0 1 1 3 4 4 3 1 0 1 3 4 4 4 4 3 2 1 0 0 0 0 0 0 0 0 0 0 0 0 0 0 0 0 0 0 0 0 0 0 0
0 0 0 0 1 2 3 4 3 1 0 1 3 4 3 3 3 2 1 0 0 0 0 0 0 0 0 0 0 0 0 0 0 0 0 0 0 0 0 0 0 0 0
0 0 0 0 1 1 2 3 2 1 1 2 3 3 3 3 3 1 0 0 0 0 0 0 0 0 0 0 0 0 0 0 0 0 0 0 0 0 0 0 0 0 0
0 0 0 0 1 1 2 2 1 0 1 2 3 3 3 3 2 1 0 0 0 0 0 0 0 0 0 0 0 0 0 0 0 0 0 0 0 0 0 0 0 0 0
0 0 0 0 0 1 2 2 1 0 1 2 3 3 3 3 3 2 0 0 0 1 1 1 0 0 0 0 0 0 0 0 0 0 0 0 0 0 0 0 0 0 0
0 0 0 0 0 1 1 2 1 0 0 1 2 2 2 3 4 3 1 1 1 1 2 2 1 1 0 0 0 0 0 0 0 0 0 0 0 0 0 0 0 0 0
0 0 0 0 0 0 0 1 1 0 0 0 1 1 0 1 2 2 2 2 1 1 2 2 3 3 1 0 0 0 0 0 0 0 0 0 0 0 0 0 0 0 0
0 0 0 0 0 0 0 0 0 0 0 0 0 0 0 0 0 1 2 3 2 1 1 1 2 3 2 1 0 0 0 0 0 0 0 0 0 0 0 0 0 0 0
0 0 0 0 0 0 0 1 1 1 0 0 0 0 0 0 0 0 1 2 3 3 2 1 1 2 2 1 0 0 0 0 0 0 0 0 0 0 0 0 0 0 0
0 0 0 0 0 0 0 1 1 1 0 0 0 0 0 0 0 0 0 1 2 2 2 1 1 2 1 0 0 0 0 0 0 0 0 0 0 0 0 0 0 0 0
0 0 0 0 0 0 0 1 1 0 0 0 0 0 0 0 0 0 0 0 1 1 1 0 1 2 1 0 0 0 0 0 0 0 0 0 0 0 0 0 0 0 0
0 0 0 0 0 0 0 0 0 0 0 0 0 0 0 0 0 0 0 0 0 0 0 0 1 1 1 0 0 0 0 0 0 0 0 0 0 0 0 0 0 0 0
0 0 0 0 0 0 0 0 0 0 0 0 0 0 0 0 0 0 0 0 0 0 0 1 1 1 0 0 0 0 0 0 0 0 0 0 0 0 0 0 0 0 0
0 0 0 0 0 0 0 0 0 0 0 0 0 0 0 0 0 0 0 0 0 0 0 1 1 1 0 0 0 0 0 0 0 0 0 0 0 0 0 0 0 0 0
0 0 0 0 0 0 0 0 0 0 0 0 0 0 0 0 0 0 0 0 0 0 0 0 0 0 0 0 0 0 0 0 0 0 0 0 0 0 0 0 0 0 0
0 0 0 0 0 0 0 0 0 0 0 0 0 0 0 0 0 0 0 0 0 0 0 0 0 0 0 0 0 0 0 0 0 0 0 0 0 0 0 0 0 0 0
0 0 0 0 0 0 0 0 0 0 0 0 0 0 0 0 0 0 0 0 0 0 0 0 0 0 0 0 0 0 0 0 0 0 0 0 0 0 0 0 0 0 0
Wind_Speed
7 7 7 5 5 5 6 8 9 9 8 6 7 7 7 7 7 7 10 11 11 12 11 9 9 9 7 7 7 5 6 4 4 3 1 0 2 2 2 2 2 3 4
7 7 7 5 6 6 6 7 8 9 8 7 7 6 6 6 7 7 9 10 11 12 11 11 9 9 8 8 8 7 5 4 4 4 3 1 1 2 2 2 3 3 3
5 6 6 5 5 6 7 6 8 8 7 8 6 6 5 5 6 8 9 10 11 12 11 12 10 10 9 8 8 8 7 5 4 4 4 4 3 2 2 3 3 3 2
3 5 6 5 6 6 7 7 7 8 9 8 8 9 8 8 8 7 7 10 11 12 13 13 12 11 8 9 9 8 6 7 5 4 2 2 3 3 1 2 3 4 3
2 4 5 5 5 5 6 7 7 7 8 8 10 10 8 7 6 7 9 10 10 12 13 13 12 11 9 10 9 8 7 6 5 4 3 2 1 2 3 2 2 2 2
1 2 4 4 4 3 4 5 7 7 8 9 10 11 11 9 9 10 10 9 8 10 13 13 12 11 9 10 10 9 9 7 6 5 4 3 3 3 3 3 3 2 3
1 2 4 4 3 3 4 5 5 6 8 9 10 11 11 11 11 10 10 10 9 9 13 12 12 11 10 10 10 9 9 8 7 6 4 4 3 3 3 3 2 2 2
2 3 4 4 3 3 4 4 4 5 7 8 9 9 10 9 9 10 9 10 8 9 13 13 12 12 12 11 10 8 8 8 7 7 6 4 4 3 3 4 3 2 1
4 3 4 4 3 3 3 3 3 4 5 7 8 9 9 9 10 9 9 8 8 9 13 14 13 13 13 12 11 8 9 8 8 7 7 5 4 3 3 3 4 4 2
6 4 4 4 4 3 3 3 3 4 4 5 7 7 9 9 10 9 10 9 10 11 13 14 14 13 13 13 11 9 9 9 8 7 8 6 4 4 3 3 3 3 4
6 5 4 4 4 4 3 3 2 2 3 4 5 6 7 9 10 10 10 10 10 11 13 14 14 14 14 13 12 11 11 11 10 8 9 8 7 5 4 3 3 3 3
7 6 6 5 4 4 4 3 2 2 3 3 3 6 6 7 8 10 10 10 10 11 12 13 14 14 14 14 14 13 12 12 12 11 10 9 7 7 5 4 4 3 3
8 7 7 6 5 5 4 3 2 2 2 2 3 4 5 6 8 9 10 10 10 10 12 13 13 14 14 14 14 13 12 12 11 11 10 10 9 8 6 6 5 4 3
8 7 7 6 6 5 5 4 3 3 2 2 2 3 5 6 7 7 8 9 9 10 11 12 13 13 13 13 13 13 12 11 9 9 9 9 10 10 9 7 6 5 4
9 8 7 7 6 5 5 3 3 3 2 2 2 3 3 4 4 5 6 7 8 8 9 11 12 12 11 12 13 12 12 11 10 8 8 8 10 10 9 7 6 6 5
9 8 8 7 6 6 5 4 3 3 2 2 2 3 2 2 3 4 5 6 7 7 9 10 11 12 10 15 18 14 11 11 10 9 8 8 9 10 11 10 10 9 8
10 10 9 7 6 5 5 5 4 3 3 2 2 3 2 3 3 3 4 5 6 7 8 9 11 11 12 17 18 17 12 10 10 10 9 7 7 10 8 9 9 7 8
10 10 9 8 6 5 5 4 4 3 3 3 3 3 2 2 2 3 3 4 5 6 7 8 9 10 12 18 19 18 12 9 9 10 10 10 9 9 10 8 7 5 4
9 9 8 8 7 5 5 4 4 3 3 3 3 3 2 2 2 3 4 3 4 5 6 7 8 9 11 17 19 17 9 8 8 9 9 10 10 15 16 11 9 6 4
8 8 8 8 7 5 4 4 5 4 4 4 4 3 3 3 3 4 4 3 3 4 5 5 7 8 10 15 18 17 8 9 8 7 8 12 13 17 17 12 11 9 6
9 9 8 7 7 5 5 5 4 5 4 4 3 3 3 3 4 4 3 3 3 3 4 5 5 7 9 15 18 18 9 9 9 8 7 8 16 17 17 13 9 11 10
10 9 8 8 7 5 5 5 5 4 4 3 3 3 3 3 3 3 3 4 4 4 5 5 5 5 7 11 15 18 14 12 9 8 7 9 17 17 16 11 12 16 13
9 8 8 9 7 6 5 5 5 4 3 3 3 3 3 3 4 4 4 4 4 4 4 4 5 4 5 8 14 16 16 15 8 7 13 15 18 16 12 13 16 14 8
9 8 8 8 8 6 6 5 5 3 3 3 3 2 3 3 3 3 3 3 4 5 5 5 5 4 5 6 7 8 9 11 9 8 13 17 17 11 11 12 10 6 6
8 7 7 8 8 7 7 5 4 3 3 3 3 2 2 2 2 2 2 3 3 5 6 6 6 7 6 7 12 10 8 7 8 10 8 7 7 7 6 6 6 5 5
8 7 8 7 8 8 7 5 4 2 2 2 2 2 2 1 2 2 0 0 2 4 6 7 7 6 8 13 13 14 15 16 18 12 9 8 8 8 8 8 6 5 5
Wind_Direction
271 271 261 228 211 209 213 208 200 194 183 180 182 183 182 178 179 173 174 171 167 166 160 158 160 158 158 163 160 154 155 155 143 119 112 263 190 175 179 178 165 166 164
265 265 269 232 210 207 216 218 204 195 189 187 187 180 178 181 181 173 175 173 171 168 165 161 162 162 160 164 164 155 154 161 153 142 138 161 247 256 201 178 178 180 167
260 268 272 244 219 208 210 217 210 197 193 190 179 177 176 178 182 179 176 179 176 172 169 166 162 165 164 167 168 163 161 165 170 163 157 156 191 202 222 204 186 186 176
255 267 272 256 233 218 213 212 208 198 195 191 185 181 189 191 185 178 177 179 178 175 171 169 166 167 167 167 171 168 163 160 171 188 202 170 148 146 178 240 210 190 181
243 263 267 261 256 227 219 211 201 202 200 198 192 187 192 198 181 173 177 184 182 179 174 173 170 169 170 170 172 167 168 170 169 172 174 182 152 154 147 194 216 210 200
275 278 287 284 270 249 232 213 201 203 202 202 194 190 190 192 182 178 180 188 186 182 177 175 174 172 172 173 173 171 173 174 172 170 167 161 163 181 169 178 189 201 213
310 312 311 304 302 289 247 215 205 209 207 203 198 194 192 193 190 185 185 186 188 184 181 178 177 175 175 172 170 172 175 175 174 175 176 173 178 171 164 161 184 190 200
5 339 311 300 291 294 272 223 213 218 214 206 201 195 196 195 196 190 190 189 193 187 177 179 179 177 174 174 170 171 175 176 177 181 177 174 183 177 165 160 157 168 240
354 342 321 307 303 291 265 231 232 234 224 212 203 198 199 202 199 192 192 190 192 186 178 180 180 178 176 175 172 176 177 176 181 183 182 178 178 174 170 156 153 158 187
353 344 325 317 316 311 290 248 236 241 242 229 207 206 203 205 200 196 195 195 193 187 179 180 180 179 178 177 176 176 176 178 182 180 180 184 178 174 171 167 163 160 168
345 341 327 324 320 314 304 267 242 243 249 248 221 205 205 203 202 201 200 199 195 188 182 180 181 181 181 179 179 180 178 181 183 181 183 186 178 174 174 166 163 168 159
338 337 333 332 332 327 327 313 283 256 252 253 244 213 202 203 205 203 199 198 196 191 183 180 181 183 183 181 181 183 183 184 185 185 182 184 176 175 172 169 172 177 172
333 337 340 338 334 331 330 325 319 292 276 272 257 234 208 204 206 205 200 198 196 192 184 182 184 185 184 183 183 182 184 185 186 184 184 182 177 181 176 171 176 176 166
330 333 335 335 333 328 325 322 321 318 310 297 273 251 224 214 208 206 202 197 193 191 186 185 185 185 183 181 180 179 180 181 181 181 182 181 182 183 178 177 175 163 160
330 331 331 329 327 323 318 320 315 307 299 285 278 271 255 228 212 206 200 194 194 193 185 184 183 181 181 182 178 176 176 176 176 176 178 178 176 176 174 170 169 164 165
327 325 325 324 322 320 316 315 310 297 282 271 269 280 270 251 217 206 198 189 192 191 187 185 182 181 184 179 176 173 173 173 175 176 174 170 170 167 165 163 163 165 169
330 326 319 316 310 308 310 312 298 292 285 276 259 256 248 258 238 217 204 196 193 185 186 187 183 183 180 174 172 171 171 174 176 174 169 165 166 161 159 154 148 154 160
326 320 315 312 305 300 303 304 302 292 282 279 275 242 227 232 234 222 219 208 196 185 186 186 185 180 176 170 169 167 171 172 173 171 169 166 164 164 156 147 142 137 136
317 312 309 305 301 299 301 305 301 288 276 276 275 252 229 225 225 220 216 212 197 190 186 182 181 179 174 169 165 163 168 168 169 166 165 164 166 163 153 148 146 136 123
315 311 309 308 302 298 298 296 287 279 272 270 264 246 228 220 222 224 217 201 199 193 182 181 181 176 173 168 165 163 167 165 163 160 164 165 164 162 158 158 156 154 150
310 309 307 304 298 297 297 287 277 270 268 267 252 240 232 224 220 221 210 192 189 180 181 178 177 174 172 167 167 168 170 169 164 163 165 166 162 162 162 159 162 158 145
312 313 309 304 302 303 300 288 281 275 273 271 253 235 228 227 220 212 206 190 181 177 179 171 165 167 168 168 172 172 170 163 164 164 161 159 158 159 158 155 148 141 135
311 313 311 307 307 307 305 294 288 284 279 272 262 243 234 222 212 202 201 190 184 181 176 169 168 165 162 163 166 168 164 159 157 154 154 151 152 151 153 149 144 140 138
308 310 310 307 308 309 308 295 289 286 280 272 269 256 236 222 209 206 198 195 191 183 174 170 169 161 158 159 161 162 154 147 142 139 142 142 142 138 139 142 141 138 145
306 307 306 305 307 310 306 299 291 286 280 274 273 270 241 219 209 214 210 210 217 203 185 180 174 170 174 173 163 159 157 156 148 136 129 132 139 139 137 133 131 133 137
303 303 302 303 306 306 303 303 297 284 279 276 270 263 245 230 202 178 138 199 201 193 185 182 178 174 165 158 158 157 153 150 147 139 144 149 153 154 153 151 147 146 149